Notices

What's New in latest Release from April 7th, 2021:

- Updated Glossary, including Speed of Maximum Gust, and Total Hourly Precipitation

- Updated national and regional climate services offices contacts and prices information

- Addition of station inventory lists for 1981-2010, 1971-2000, and 1961-1990 Normals.

If you haven't already, please take our survey and provide feedback about our website: https://eccc.sondage-survey.ca/f/LanguageSelection.aspx?s=442ca660-fcf1-47c0-95a9-59707d6fd709

Hourly Data Report for January 16, 2006

TORONTO CITY
ONTARIO

43°40'00.000" N
79°24'00.000" W
112.50 m
6158355
71508
XTO

Download Data

Hourly Data (January 2006)
Hourly Data Report for January 16, 2006
TIME
LST
Temp Definition
°C
Dew Point Definition
°C
Rel Hum Definition
%
Precip. Amount Definition
mm

Wind Dir Definition
10's deg

Wind Spd Definition
km/h
Visibility Definition
km
Stn Press Definition
kPa
Hmdx Definition


Wind Chill Definition


Weather Definition


00:00 -11.3 -17.4 61   LegendMM LegendMM   100.38     LegendNANA
01:00 -11.6 -17.1 64   LegendMM LegendMM   100.34     LegendNANA
02:00 -11.4 -17.6 60   LegendMM LegendMM   100.37     LegendNANA
03:00 -11.6 -18.5 57   LegendMM LegendMM   100.39     LegendNANA
04:00 -11.5 -18.5 56   LegendMM LegendMM   100.37     LegendNANA
05:00 -11.9 -19.6 53   LegendMM LegendMM   100.30     LegendNANA
06:00 -12.1 -19.3 55   LegendMM LegendMM   100.31     LegendNANA
07:00 -12.2 -19.2 56   LegendMM LegendMM   100.29     LegendNANA
08:00 -11.9 -18.9 56   LegendMM LegendMM   100.29     LegendNANA
09:00 -11.1 -17.5 59   LegendMM LegendMM   100.32     LegendNANA
10:00 -9.9 -16.9 57   LegendMM LegendMM   100.35     LegendNANA
11:00 -7.7 -16.9 48   LegendMM LegendMM   100.31     LegendNANA
12:00 -7.5 -13.0 65   LegendMM LegendMM   100.24     LegendNANA
13:00 -6.9 -12.3 65   LegendMM LegendMM   100.15     LegendNANA
14:00 -5.4 -10.4 68   LegendMM LegendMM   100.09     LegendNANA
15:00 -5.5 -10.6 67   LegendMM LegendMM   100.07     LegendNANA
16:00 -5.5 -9.9 71   LegendMM LegendMM   100.05     LegendNANA
17:00 -5.4 -10.2 69   LegendMM LegendMM   100.04     LegendNANA
18:00 -5.0 -10.2 67   LegendMM LegendMM   100.09     LegendNANA
19:00 -4.3 -8.5 72   LegendMM LegendMM   100.10     LegendNANA
20:00 -3.8 -7.9 73   LegendMM LegendMM   100.06     LegendNANA
21:00 -3.4 -7.1 76   LegendMM LegendMM   100.12     LegendNANA
22:00 -3.1 -6.7 76   LegendMM LegendMM   100.15     LegendNANA
23:00 -4.8 -8.7 74   LegendMM LegendMM   100.17     LegendNANA

Notes on Data Quality.

Legend

  • E = Estimated
  • M = Missing
  • NA = Not Available*
  • [empty] = Indicates an unobserved value
Date modified: